When you browse on this site, cookies collect data to enhance your experience and personalize the content and advertising you see.
Visit our Privacy Policy to learn more. By continuing to use the site, you agree to this use of cookies and data.
  • In Hungary
  • List of Countries
  • For 7 days
  • Water Temperature
  • Satellite Maps
  • Weather Map
  • News
  • Weather Widgets
  • user-avatar
    Login

    Hourly Weather Castro Valley

    Today, 21 March, Thursday

    Time Temperature Precipitation Wind Pressure Humidity
    00:00 +10°C° 0 mm 0 mps 758 mmHg 81%
    01:00 +9°C° 0 mm 0 mps 758 mmHg 82%
    02:00 +9°C° 0 mm 0 mps 758 mmHg 82%
    03:00 +9°C° 0 mm 0 mps 758 mmHg 82%
    04:00 +9°C° 0 mm 0 mps 758 mmHg 83%
    05:00 +9°C° 0 mm 0 mps 759 mmHg 81%
    06:00 +9°C° 0 mm 0 mps 759 mmHg 80%
    07:00 +9°C° 0 mm 0 mps 759 mmHg 79%
    08:00 +11°C° 0 mm 0 mps 759 mmHg 69%
    09:00 +14°C° 0 mm 1 mps 759 mmHg 60%
    10:00 +16°C° 0 mm 1 mps 760 mmHg 51%
    11:00 +18°C° 0 mm 1 mps 760 mmHg 48%
    12:00 +17°C° 0 mm 2 mps 759 mmHg 45%
    13:00 +18°C° 0 mm 2 mps 759 mmHg 42%
    14:00 +18°C° 0 mm 3 mps 759 mmHg 44%
    15:00 +18°C° 0 mm 3 mps 759 mmHg 45%
    16:00 +17°C° 0 mm 4 mps 759 mmHg 46%
    17:00 +16°C° 0 mm 3 mps 759 mmHg 52%
    18:00 +13°C° 0 mm 3 mps 760 mmHg 58%
    19:00 +12°C° 0 mm 3 mps 760 mmHg 64%
    20:00 +12°C° 0 mm 2 mps 760 mmHg 67%
    21:00 +12°C° 0 mm 2 mps 761 mmHg 70%
    22:00 +11°C° 0 mm 1 mps 761 mmHg 73%
    23:00 +11°C° 0 mm 1 mps 761 mmHg 74%

    Tomorrow, 22 March, Friday

    Time Temperature Precipitation Wind Pressure Humidity
    00:00 +11°C° 0 mm 1 mps 761 mmHg 75%
    01:00 +11°C° 0 mm 1 mps 761 mmHg 76%
    02:00 +11°C° 0 mm 1 mps 761 mmHg 76%
    03:00 +11°C° 0 mm 1 mps 761 mmHg 76%
    04:00 +10°C° 0 mm 2 mps 761 mmHg 76%
    05:00 +10°C° 0.1 mm 2 mps 761 mmHg 75%
    06:00 +10°C° 0.1 mm 2 mps 761 mmHg 73%
    07:00 +10°C° 0.1 mm 2 mps 761 mmHg 72%
    08:00 +12°C° 0.1 mm 2 mps 761 mmHg 69%
    09:00 +13°C° 0.1 mm 2 mps 761 mmHg 66%
    10:00 +14°C° 0.1 mm 2 mps 761 mmHg 63%
    11:00 +14°C° 0 mm 3 mps 761 mmHg 63%
    12:00 +16°C° 0 mm 3 mps 761 mmHg 62%
    13:00 +17°C° 0 mm 4 mps 761 mmHg 62%
    14:00 +15°C° 0.7 mm 4 mps 761 mmHg 69%
    15:00 +14°C° 0.7 mm 4 mps 760 mmHg 76%
    16:00 +13°C° 0.7 mm 3 mps 760 mmHg 83%
    17:00 +13°C° 0.2 mm 3 mps 760 mmHg 84%
    18:00 +14°C° 0.2 mm 2 mps 761 mmHg 86%
    19:00 +13°C° 0.2 mm 2 mps 761 mmHg 87%
    20:00 +13°C° 0.1 mm 2 mps 761 mmHg 88%
    21:00 +13°C° 0.1 mm 2 mps 761 mmHg 89%
    22:00 +13°C° 0.1 mm 1 mps 761 mmHg 90%
    23:00 +13°C° 0.2 mm 1 mps 761 mmHg 89%

    Day after tomorrow, 23 March, Saturday

    Time Temperature Precipitation Wind Pressure Humidity
    00:00 +13°C° 0.2 mm 1 mps 761 mmHg 89%
    01:00 +12°C° 0.2 mm 1 mps 761 mmHg 89%
    02:00 +12°C° 0.1 mm 1 mps 761 mmHg 88%
    03:00 +12°C° 0.1 mm 1 mps 761 mmHg 87%
    04:00 +10°C° 0.1 mm 2 mps 761 mmHg 86%
    05:00 +11°C° 0 mm 1 mps 761 mmHg 86%
    06:00 +11°C° 0 mm 1 mps 762 mmHg 86%
    07:00 +11°C° 0 mm 1 mps 762 mmHg 87%
    08:00 +12°C° 0 mm 1 mps 762 mmHg 76%
    09:00 +13°C° 0 mm 2 mps 762 mmHg 65%
    10:00 +15°C° 0 mm 2 mps 762 mmHg 54%
    11:00 +16°C° 0 mm 3 mps 762 mmHg 50%
    12:00 +17°C° 0 mm 3 mps 762 mmHg 47%
    13:00 +17°C° 0 mm 4 mps 762 mmHg 43%
    14:00 +17°C° 0 mm 4 mps 762 mmHg 45%
    15:00 +17°C° 0 mm 4 mps 761 mmHg 47%
    16:00 +15°C° 0 mm 4 mps 761 mmHg 49%
    17:00 +14°C° 0 mm 4 mps 761 mmHg 55%
    18:00 +12°C° 0 mm 3 mps 761 mmHg 61%
    19:00 +11°C° 0 mm 3 mps 762 mmHg 67%
    20:00 +10°C° 0 mm 2 mps 762 mmHg 71%
    21:00 +10°C° 0 mm 2 mps 762 mmHg 75%
    22:00 +10°C° 0 mm 1 mps 762 mmHg 79%
    23:00 +10°C° 0 mm 1 mps 762 mmHg 81%

    24 March, Sunday

    Time Temperature Precipitation Wind Pressure Humidity
    00:00 +10°C° 0 mm 1 mps 762 mmHg 82%
    01:00 +8°C° 0 mm 0 mps 762 mmHg 83%
    02:00 +8°C° 0 mm 0 mps 761 mmHg 82%
    03:00 +9°C° 0 mm 1 mps 761 mmHg 81%
    04:00 +9°C° 0 mm 1 mps 761 mmHg 80%
    05:00 +8°C° 0 mm 0 mps 761 mmHg 78%
    06:00 +8°C° 0 mm 0 mps 761 mmHg 76%
    07:00 +8°C° 0 mm 0 mps 761 mmHg 73%
    08:00 +11°C° 0 mm 0 mps 761 mmHg 65%
    09:00 +13°C° 0 mm 0 mps 761 mmHg 56%
    10:00 +15°C° 0 mm 0 mps 761 mmHg 47%
    11:00 +18°C° 0 mm 1 mps 761 mmHg 42%
    12:00 +19°C° 0 mm 1 mps 761 mmHg 37%
    13:00 +19°C° 0 mm 2 mps 760 mmHg 33%
    14:00 +19°C° 0 mm 3 mps 760 mmHg 32%
    15:00 +19°C° 0 mm 3 mps 759 mmHg 31%
    16:00 +19°C° 0 mm 4 mps 759 mmHg 30%
    17:00 +17°C° 0 mm 4 mps 759 mmHg 33%
    18:00 +14°C° 0 mm 3 mps 759 mmHg 36%
    19:00 +13°C° 0 mm 3 mps 759 mmHg 39%
    20:00 +13°C° 0 mm 4 mps 759 mmHg 43%
    21:00 +12°C° 0 mm 4 mps 759 mmHg 48%
    22:00 +12°C° 0 mm 5 mps 759 mmHg 52%
    23:00 +12°C° 0 mm 5 mps 759 mmHg 56%

    25 March, Monday

    Time Temperature Precipitation Wind Pressure Humidity
    00:00 +12°C° 0 mm 5 mps 758 mmHg 60%
    01:00 +10°C° 0 mm 5 mps 758 mmHg 63%
    02:00 +10°C° 0.2 mm 5 mps 758 mmHg 68%
    03:00 +10°C° 0.2 mm 5 mps 757 mmHg 72%
    04:00 +10°C° 0.2 mm 6 mps 757 mmHg 77%
    05:00 +10°C° 1 mm 5 mps 757 mmHg 79%
    06:00 +10°C° 1 mm 5 mps 758 mmHg 81%
    07:00 +10°C° 1 mm 5 mps 758 mmHg 83%
    08:00 +11°C° 0 mm 4 mps 759 mmHg 75%
    09:00 +12°C° 0 mm 3 mps 760 mmHg 68%
    10:00 +13°C° 0 mm 3 mps 760 mmHg 60%
    11:00 +14°C° 0 mm 3 mps 760 mmHg 55%
    12:00 +16°C° 0 mm 3 mps 761 mmHg 50%
    13:00 +16°C° 0 mm 3 mps 761 mmHg 45%
    14:00 +16°C° 0 mm 3 mps 761 mmHg 45%
    15:00 +16°C° 0 mm 3 mps 760 mmHg 45%
    16:00 +16°C° 0 mm 3 mps 760 mmHg 45%
    17:00 +14°C° 0 mm 3 mps 760 mmHg 51%
    18:00 +13°C° 0 mm 2 mps 760 mmHg 57%
    19:00 +12°C° 0 mm 2 mps 761 mmHg 63%
    20:00 +10°C° 0 mm 2 mps 761 mmHg 66%
    21:00 +11°C° 0 mm 1 mps 761 mmHg 70%
    22:00 +10°C° 0 mm 1 mps 761 mmHg 74%
    23:00 +10°C° 0 mm 1 mps 760 mmHg 76%

    26 March, Tuesday

    Time Temperature Precipitation Wind Pressure Humidity
    00:00 +9°C° 0 mm 1 mps 760 mmHg 78%
    01:00 +8°C° 0 mm 0 mps 760 mmHg 79%
    02:00 +8°C° 0 mm 0 mps 760 mmHg 80%
    03:00 +8°C° 0 mm 0 mps 759 mmHg 80%
    04:00 +7°C° 0 mm 0 mps 759 mmHg 81%
    05:00 +8°C° 0 mm 0 mps 759 mmHg 79%
    06:00 +8°C° 0 mm 0 mps 759 mmHg 78%
    07:00 +8°C° 0 mm 0 mps 759 mmHg 76%
    08:00 +10°C° 0 mm 0 mps 759 mmHg 66%
    09:00 +13°C° 0 mm 1 mps 759 mmHg 57%
    10:00 +15°C° 0 mm 1 mps 759 mmHg 47%
    11:00 +16°C° 0 mm 1 mps 759 mmHg 42%
    12:00 +17°C° 0 mm 2 mps 759 mmHg 38%
    13:00 +18°C° 0 mm 3 mps 758 mmHg 33%
    14:00 +18°C° 0 mm 3 mps 758 mmHg 34%
    15:00 +18°C° 0 mm 3 mps 757 mmHg 36%
    16:00 +18°C° 0 mm 3 mps 757 mmHg 37%
    17:00 +16°C° 0 mm 3 mps 757 mmHg 42%
    18:00 +14°C° 0 mm 3 mps 757 mmHg 46%
    19:00 +13°C° 0 mm 3 mps 757 mmHg 51%
    20:00 +12°C° 0.4 mm 3 mps 757 mmHg 58%
    21:00 +12°C° 0.4 mm 4 mps 757 mmHg 64%
    22:00 +11°C° 0.4 mm 4 mps 757 mmHg 70%
    23:00 +11°C° 0.4 mm 4 mps 757 mmHg 74%
    Show more